Meath Environmental Platform

Observations for Trim Market St

Time AQI Temp °C Hum % Pres Pa CO μg/m³ H₂S μg/m³ NO μg/m³ NO₂ μg/m³ O₃ μg/m³ SO₂ μg/m³ PM1 μg/m³ PM2.5 μg/m³ PM10 μg/m³
Tuesday 14 July 2026
13:01 1 34.5 26 66,414 0 0 0 0 31.4 0 1.43 4.58 5.04
12:59 1 34.4 26 66,404 0 0 0 0 35.13 0 1.43 5.66 5.75
12:58 1 34.4 26 66,378 0 0 0 0 33.69 0 0.71 4.56 5.01
12:57 1 34.4 27 66,374 0 0 0 0 33.71 0 2.14 5.1 5.61
12:56 1 34.4 27 66,370 0 0 0 0 24.84 0 2.14 5.64 6.2
12:54 1 34.3 27 66,366 0 0 0 0 33.29 0 0.71 4.53 4.98
12:53 1 34.3 27 66,327 0 0 0 0 34.07 0 0.71 5.06 5.76
12:52 1 34.3 28 66,341 0 0 0 0 25.74 0 2.14 5.6 6.16
12:51 1 34.3 28 66,357 0 0 0 0 38.17 0 1.43 4.51 4.89
12:50 1 34.2 28 66,345 0 0 0 7.41 35.65 0 1.43 5.05 5.56
12:49 1 34.2 28 66,360 0 0 0 0 34.72 0 2.14 5.06 5.56
12:48 1 34.2 28 66,353 0 0 0 0 39.71 0 2.14 5.05 5.56
12:47 1 34.1 28 66,370 0 0 0 0 36.5 0 0.71 4.5 4.95
12:46 1 34.1 28 66,396 0 0 0 0 32.64 0 0.71 3.95 4.35
12:44 1 34 28 66,376 0 0 0 0 31.12 0 0.71 3.92 4.32
12:43 1 33.9 28 66,374 0 0 0 0 35.49 0 2.14 5.55 6.11
12:42 1 33.9 28 66,374 0 0 0 0 31.46 0 2.14 5.01 5.51
12:41 1 33.9 29 66,345 0 0 0 0 31.72 0 2.85 5.54 5.78
12:38 1 33.7 29 66,333 0 0 0 0 45.55 0 2.14 5.53 6.08
12:36 1 33.6 29 66,303 0 0 0 0 42.08 0 2.14 4.99 5.48